Погода в Серове

Погода в Серове : погода сейчас, прогноз погоды и архив. Всё, что Вы хотите узнать о погоде в Серове!

Поиск расширенной информации на нашем сайте:

Полезная информация:

Другие новости

Новости СМИ2

Главная страница сайта

Новости сайта

03.07.2017

Напоминаем, что на нашем специализированном сайте Метеоцентр.Азия вы можете получить высокодетализированные автоматические прогнозы погоды по пунктам России, СНГ и мира в авиационном формате (включающие направление и скорость ветра, видимость, явления погоды, количество и форму облачности, нижнюю и верхнюю границу облачности).

Рекомендуем:

Погода в Серове - сегодня

Время (UTC), дата Ветер
(°,м/с) 
Видим.   Явления Облачность Т
(°С)
Тd
(°С)
f(%) Тe
(°С)
Pmin
(гПа)
dP
(гПа)
Po
(мм)
O2
(г/м3)
Тmin Tmax R s Состояние
почвы
09 15.09.19 220 (ЮЗ) 20000 м    9/4 600 м средняя 
[Sc|Ac trans]
+18.5 +8.8 53 +19  1004.8  -0.8  743  279           
12 15.09.19 260 (З) 20000 м  ливневой дождь  9/9 300 м кучево-дожд. 
[Cb calv]
+14.5 +10.3 76 +18  1005  743  282           
15 15.09.19 180 (Ю) 2000 м  слаб. дождь{ливн. осадки}  10/10 300 м 
[Frnb]
+11.3 +9.6 89 +13  1004.5  -0.6  742  285    +18.6     
18 15.09.19 250 (З) 10 км  {ливн. осадки, дождь}  8/8 600 м 
[Sc]
+10.5 +9.1 91 +12  1004.3  -0.3  742  286           
21 15.09.19 270 (З) 10 км    5/5 600 м 
[Sc]
+8.2 +7 92 +9  1004.5  742  289           
00 16.09.19 280 (З) 10 км    3/3 600 м 
[Sc]
+6.4 +5.2 92 +7  1004.6  742  291           
03 16.09.19 290 (З) 20000 м    8/4 600 м верхняя 
[Sc|Ci fib]
+6.6 +5.3 91 +8  1004.1  -0.4  742  291  +5.8    0.3    влажная 
06 16.09.19 260 (З) 20000 м    5/3 600 м верхняя 
[Sc|Ci fib]
+9.8 +6.4 79 +9  1003.4  -0.5  741  287           
09 16.09.19 310 (СЗ) 20000 м    8/3 600 м верхняя 
[Cu hum|Ci fib]
+11.8 +3.8 58 +12  1002.3  -1  741  285           
12 16.09.19 250 (З) 20000 м    3/3 600 м 
[Cu hum]
+13.9 -0.5 37 +14  1000.8  -1.4  740  284           
15 16.09.19 180 (Ю) 10 км    3/3 600 м 
[Cu hum]
+9.3 +1.1 56 +10  1000.2  -0.8  739  288    +14.7       
18 16.09.19 190 (Ю) 10 км    6/6 600 м 
[Sc]
+8.5 +2.9 68 +9  999.1  -1.1  738  288           
21 16.09.19 120 (ЮВ) 10 км    9/9 600 м 
[Sc]
+6.9 +3.7 80 +8  997.1  -2  737  289           
00 17.09.19 140 (ЮВ) 2000 м  слаб. дождь  10/10 300 м 
[Frnb]
+6.5 +5 90 +7  995.4  -1.7  735  289           
03 17.09.19 150 (ЮВ) 20000 м  слаб. дождь  10/10 300 м 
[Frnb]
+7.2 +5.8 91 +8  994.3  -1  735  287  +6.5    0.5    влажная 
06 17.09.19 210 (ЮЗ) 20000 м  {дождь}  10/10 300 м 
[Frnb]
+9.6 +6.9 83 +10  994.4  0.2  735  285           
09 17.09.19 200 (Ю) 20000 м    9/9 300 м кучево-дожд. 
[Cb calv]
+12.7 +6.1 64 +13  994.7  0.5  735  282           
12 17.09.19 230 (ЮЗ) 20000 м  {ливн. осадки}  5/5 300 м кучево-дожд. 
[Cb calv]
+12.8 +4.9 59 +13  995.6  0.9  736  282           
15 17.09.19 220 (ЮЗ) 10 км    3/3 600 м 
[Sc]
+9.5 +6 79 +11  996.9  1.1  740  287    +13.5  0.0     
18 17.09.19 тихо ()   10 км    ясно 
+8 +5.2 82 +8  996.6  -0.4  736  287           
21 17.09.19 190 (Ю) 10 км    8/8 600 м 
[Sc]
+8.4 +6 85 +8  995.9  -0.7  736  287           
00 18.09.19 190 (Ю) 10 км    6/6 600 м 
[Sc]
+7.6 +5.5 87 +9  995.6  -0.3  736  287           
03 18.09.19 230 (ЮЗ) 20000 м    10/10 600 м 
[Sc]
+8.4 +5.9 84 +9  995.8  0.2  736  287  +7.3        влажная 
06 18.09.19 220 (ЮЗ) 20000 м    9/9 600 м 
[Sc]
+11.3 +6.5 72 +12  995.8  0.2  736  284           
09 18.09.19 320 (СЗ) 2{10}  20000 м  {ливн. осадки}  8/8 600 м 
[Cu Sc]
+13.7 +7.1 64 +14  995.9  0.2  736  281           
Время (UTC), дата Ветер
(°,м/с) 
Видим.   Явления Облачность Т
(°С)
Тd
(°С)
f(%) Тe
(°С)
Pmin
(гПа)
dP
(гПа)
Po
(мм)
O2
(г/м3)
Тmin Tmax R s Состояние
почвы

Для получения пояснительной информации подведите курсор к названию столбца.

ПОГОДА в Серове - архив

Всё, что Вы хотите узнать о погоде в Серове - удобно и подробно!

Выберите нужную дату (начиная с 1 января 2018* года) и нажмите кнопку "Найти".
Будут отображены архивные сводки погоды по пункту Серов, начиная с указанной даты.


Отображать данные в формате CSV (для использования в таблицах Excel)


Внимание! Наш архив погоды предназначен исключительно для личного некоммерческого использования в познавательных целях. Если Вам необходимы официальные справки о состоянии погоды (для производственных, юридических, коммерческих и т.п. целей), обращайтесь в органы Росгидромета.

*Примечание: данная дата относится к архиву по метеостанциям СССР (Россия, СНГ, Балтия).
Архив по метеостанциям Зарубежной Европы и Азии (кроме Китая) хранится 10 дней, по другим регионам земного шара (Китай, Африка, Америка, Австралия, Океания) - 1 день.

Серов - район местоположения метеостанции


Название, широта, долгота, высота метеостанции:
Серов 59.6°ш. 60.5°д. 130 м над ур. моря [Российская Федерация]

Дополнительная информация

В oтличие oт бoльшинства пoгoдных сайтoв мы публикуем пoдрoбную метеoинфoрмацию в детальнoм прoфессиoнальнoм фoрмате.

Характеристики температуры и влажнoсти вoздуха измеряются на высoте 2 м в тени вдали oт зданий и деревьев.
Скoрoсть ветра измеряется на высoте 10 м (на урoвне рoста челoвека скoрoсть ветра ниже в 1.5-2 раза). Если метеoстанция нахoдится в гoрoде или в лесу, тo скoрoсть ветра занижена на 2-4 м/с пo сравнению с oткрытым местoм. Скoрoсть ветра над акватoриями крупных рек и oзёр, а также на вершинах хoлмoв на 2-5 м/с выше, чем в oбычных услoвиях.
Атмoсфернoе давление в разных тoчках местнoсти мoжет значительнo oтличаться oт давления на метеoстанции, в зависимoсти oт услoвий рельефа (при пoдъёме на 10 м давление пoнижается примернo на 1 мм рт.ст.).